Weather History for KSYF - November, 2012

Change the Weather History Date:

Sunday, November 11, 2012

  Actual Average Record
Temperature  
Mean Temperature 25 °F -  
Max Temperature 36 °F 52 °F 37 °F (2013)
Min Temperature 14 °F 26 °F 7 °F (2014)
Degree Days  
Heating Degree Days 40    
Moisture  
Dew Point 11 °F    
Average Humidity 59    
Maximum Humidity 81    
Minimum Humidity 29    
Precipitation  
Precipitation 0.00 in - - ()
Sea Level Pressure  
Sea Level Pressure 30.04 in    
Wind  
Wind Speed 10 mph ()    
Max Wind Speed 17 mph    
Max Gust Speed 25 mph    
Visibility 10.0 miles    
Events      
Averages and records for this station are not official NWS values.
T = Trace of Precipitation, MM = Missing Value Source: Averaged Metar Reports

Daily Weather History Graph

Daily Weather History Graph

Search for Another Location

Airport or City:

Trip Planner

Search our weather history database for the weather conditions in past years. The results will help you decide how hot, cold, wet, or windy it might be!

Date:

Astronomy

Nov. 11, 2012 Rise Set
Actual Time 7:27 AM CST 5:34 PM CST
Civil Twilight 6:59 AM CST 6:02 PM CST
Nautical Twilight 6:26 AM CST 6:35 PM CST
Astronomical Twilight 5:54 AM CST 7:07 PM CST
Moon 4:44 AM CST (11/11) 3:59 PM CST (11/11)
Length of Visible Light 11h 03m
Length of Day
10h 06m
Waning Crescent, 7% of the Moon is Illuminated
Nov 11
Waning Crescent
Nov 13
New
Nov 20
First Quarter
Nov 28
Full
Dec 6
Last Quarter

Hourly Weather History & Observations

Time (CST) Temp. Windchill Dew Point Humidity Pressure Visibility Wind Dir Wind Speed Gust Speed Precip Events Conditions
12:35 AM 28.6 °F 16.4 °F 21.0 °F 73% 29.86 in 10.0 mi North 17.3 mph 23.0 mph N/A   Overcast
12:55 AM 27.3 °F 15.2 °F 19.6 °F 73% 29.86 in 10.0 mi North 16.1 mph 24.2 mph N/A   Overcast
1:15 AM 26.6 °F 14.7 °F 19.4 °F 74% 29.87 in 10.0 mi North 15.0 mph 20.7 mph N/A   Overcast
1:35 AM 26.6 °F 14.3 °F 19.0 °F 73% 29.88 in 10.0 mi North 16.1 mph 24.2 mph N/A   Overcast
1:55 AM 26.6 °F 14.7 °F 18.9 °F 73% 29.90 in 10.0 mi North 15.0 mph 25.3 mph N/A   Overcast
2:15 AM 26.1 °F 13.6 °F 18.1 °F 72% 29.90 in 10.0 mi NNW 16.1 mph 19.6 mph N/A   Overcast
2:35 AM 25.7 °F 14.0 °F 16.5 °F 68% 29.92 in 10.0 mi North 13.8 mph 21.9 mph N/A   Overcast
2:55 AM 25.2 °F 13.9 °F 15.8 °F 68% 29.92 in 10.0 mi North 12.7 mph - N/A   Overcast
3:15 AM 24.8 °F 15.3 °F 15.6 °F 68% 29.93 in 10.0 mi North 9.2 mph - N/A   Mostly Cloudy
3:35 AM 24.6 °F 12.7 °F 15.4 °F 68% 29.92 in 10.0 mi North 13.8 mph 18.4 mph N/A   Mostly Cloudy
3:55 AM 23.0 °F 11.1 °F 14.9 °F 71% 29.92 in 10.0 mi North 12.7 mph - N/A   Scattered Clouds
4:15 AM 22.1 °F 11.3 °F 14.0 °F 71% 29.92 in 10.0 mi North 10.4 mph - N/A   Clear
4:35 AM 20.3 °F 10.6 °F 13.5 °F 75% 29.93 in 10.0 mi North 8.1 mph - N/A   Clear
4:55 AM 19.2 °F 12.5 °F 13.3 °F 78% 29.93 in 10.0 mi North 4.6 mph - N/A   Scattered Clouds
5:15 AM 19.9 °F 11.1 °F 14.5 °F 80% 29.94 in 10.0 mi NNW 6.9 mph - N/A   Mostly Cloudy
5:35 AM 20.1 °F 12.3 °F 15.1 °F 81% 29.95 in 10.0 mi NW 5.8 mph - N/A   Overcast
5:55 AM 20.3 °F 13.8 °F 14.9 °F 80% 29.96 in 10.0 mi NW 4.6 mph - N/A   Overcast
6:15 AM 20.7 °F 11.9 °F 14.7 °F 78% 29.96 in 10.0 mi NW 6.9 mph - N/A   Overcast
6:35 AM 21.0 °F 10.6 °F 14.9 °F 77% 29.96 in 10.0 mi NW 9.2 mph - N/A   Overcast
6:55 AM 21.2 °F 10.9 °F 14.5 °F 75% 29.96 in 10.0 mi NW 9.2 mph - N/A   Overcast
7:35 AM 19.4 °F 10.4 °F 13.6 °F 78% 29.99 in 10.0 mi NW 6.9 mph - N/A   Mostly Cloudy
7:55 AM 18.5 °F 9.3 °F 13.1 °F 79% 29.99 in 10.0 mi NW 6.9 mph - N/A   Scattered Clouds
8:15 AM 18.5 °F 7.5 °F 12.2 °F 76% 30.01 in 10.0 mi WNW 9.2 mph - N/A   Mostly Cloudy
8:35 AM 19.0 °F 6.8 °F 11.8 °F 74% 30.01 in 10.0 mi NW 11.5 mph - N/A   Scattered Clouds
8:55 AM 19.6 °F 6.8 °F 10.8 °F 69% 30.02 in 10.0 mi NW 12.7 mph 18.4 mph N/A   Clear
9:55 AM 25.7 °F 13.5 °F 9.7 °F 51% 30.04 in 10.0 mi NNW 15.0 mph 18.4 mph N/A   Clear
10:15 AM 25.5 °F 12.4 °F 8.4 °F 48% 30.04 in 10.0 mi NNW 17.3 mph 20.7 mph N/A   Clear
10:35 AM 27.5 °F 18.0 °F 8.4 °F 45% 30.04 in 10.0 mi NNW 10.4 mph 17.3 mph N/A   Clear
10:55 AM 28.6 °F 18.7 °F 7.9 °F 42% 30.05 in 10.0 mi NNW 11.5 mph 18.4 mph N/A   Scattered Clouds
11:15 AM 26.4 °F 16.6 °F 7.9 °F 46% 30.05 in 10.0 mi NW 10.4 mph - N/A   Scattered Clouds
11:35 AM 30.4 °F 21.5 °F 7.5 °F 38% 30.05 in 10.0 mi NW 10.4 mph 17.3 mph N/A   Clear
11:55 AM 30.9 °F 21.7 °F 5.9 °F 35% 30.05 in 10.0 mi NW 11.5 mph - N/A   Clear
12:15 PM 31.8 °F 23.3 °F 6.6 °F 35% 30.05 in 10.0 mi WNW 10.4 mph - N/A   Clear
12:35 PM 33.4 °F 25.9 °F 5.2 °F 31% 30.04 in 10.0 mi NW 9.2 mph 19.6 mph N/A   Clear
12:55 PM 34.2 °F 25.7 °F 5.4 °F 30% 30.03 in 10.0 mi NW 11.5 mph - N/A   Clear
1:15 PM 34.0 °F 25.5 °F 5.0 °F 30% 30.03 in 10.0 mi NNW 11.5 mph 16.1 mph N/A   Clear
1:35 PM 34.5 °F 25.7 °F 5.5 °F 30% 30.03 in 10.0 mi North 12.7 mph 17.3 mph N/A   Clear
1:55 PM 34.7 °F 26.9 °F 5.9 °F 30% 30.03 in 10.0 mi North 10.4 mph - N/A   Clear
2:15 PM 36.1 °F 27.7 °F 6.6 °F 29% 30.03 in 10.0 mi North 12.7 mph 17.3 mph N/A   Clear
2:35 PM 36.5 °F 28.2 °F 6.8 °F 29% 30.03 in 10.0 mi NNW 12.7 mph - N/A   Clear
2:55 PM 36.3 °F 28.0 °F 7.3 °F 30% 30.04 in 10.0 mi NNW 12.7 mph 16.1 mph N/A   Clear
3:15 PM 35.8 °F 28.8 °F 8.1 °F 32% 30.04 in 10.0 mi NNW 9.2 mph - N/A   Clear
3:35 PM 36.0 °F 28.5 °F 9.1 °F 33% 30.04 in 10.0 mi NNW 10.4 mph 17.3 mph N/A   Clear
3:55 PM 35.1 °F 31.0 °F 9.3 °F 34% 30.05 in 10.0 mi North 4.6 mph - N/A   Clear
4:15 PM 35.1 °F 27.4 °F 10.9 °F 37% 30.06 in 10.0 mi North 10.4 mph 17.3 mph N/A   Clear
4:35 PM 34.7 °F 27.5 °F 11.7 °F 39% 30.08 in 10.0 mi NNW 9.2 mph - N/A   Clear
4:55 PM 32.7 °F 27.3 °F 11.7 °F 42% 30.09 in 10.0 mi NNW 5.8 mph - N/A   Clear
5:15 PM 31.6 °F 24.4 °F 11.5 °F 43% 30.09 in 10.0 mi North 8.1 mph - N/A   Clear
5:35 PM 30.2 °F 23.4 °F 11.3 °F 45% 30.09 in 10.0 mi North 6.9 mph - N/A   Clear
5:55 PM 28.0 °F 22.8 °F 11.1 °F 49% 30.10 in 10.0 mi North 4.6 mph - N/A   Clear
6:15 PM 28.2 °F 24.4 °F 11.3 °F 49% 30.12 in 10.0 mi NE 3.5 mph - N/A   Clear
6:35 PM 26.6 °F - 11.1 °F 52% 30.12 in 10.0 mi Calm Calm - N/A   Clear
6:55 PM 26.4 °F 22.4 °F 10.9 °F 52% 30.13 in 10.0 mi NE 3.5 mph - N/A   Clear
7:15 PM 23.7 °F 19.3 °F 10.4 °F 57% 30.14 in 10.0 mi East 3.5 mph - N/A   Clear
7:35 PM 24.3 °F 19.9 °F 10.9 °F 57% 30.15 in 10.0 mi SE 3.5 mph - N/A   Clear
7:55 PM 22.6 °F 16.5 °F 10.8 °F 60% 30.15 in 10.0 mi SE 4.6 mph - N/A   Clear
8:15 PM 21.6 °F 16.8 °F 10.2 °F 62% 30.17 in 10.0 mi SSE 3.5 mph - N/A   Clear
8:35 PM 22.1 °F 15.9 °F 10.4 °F 61% 30.17 in 10.0 mi South 4.6 mph - N/A   Clear
8:55 PM 17.8 °F 8.5 °F 8.8 °F 68% 30.18 in 10.0 mi SSW 6.9 mph - N/A   Clear
9:15 PM 16.7 °F 8.3 °F 8.8 °F 71% 30.19 in 10.0 mi SW 5.8 mph - N/A   Clear
9:35 PM 14.5 °F 5.7 °F 8.4 °F 77% 30.19 in 10.0 mi WSW 5.8 mph - N/A   Clear
9:55 PM 15.8 °F 10.2 °F 8.4 °F 73% 30.20 in 10.0 mi West 3.5 mph - N/A   Clear
10:15 PM 14.7 °F 9.0 °F 8.2 °F 75% 30.21 in 10.0 mi SW 3.5 mph - N/A   Clear
10:35 PM 15.4 °F 3.8 °F 8.6 °F 74% 30.20 in 10.0 mi SSW 9.2 mph - N/A   Clear
10:55 PM 15.6 °F 4.9 °F 9.0 °F 75% 30.20 in 10.0 mi SW 8.1 mph - N/A   Clear
11:15 PM 15.6 °F 7.0 °F 9.1 °F 76% 30.21 in 10.0 mi SW 5.8 mph - N/A   Clear
11:35 PM 15.8 °F 5.1 °F 10.0 °F 78% 30.21 in 10.0 mi SW 8.1 mph - N/A   Clear
11:55 PM 16.0 °F 4.4 °F 10.2 °F 78% 30.21 in 10.0 mi SSW 9.2 mph - N/A   Clear